"Pseudo-MPEC" for P12pBgx

Created 2026 Sep 5 9:35:09 UT using Find_Orb

Click here for an explanation of pseudo-MPECs

 
 Astrometry: 
     P12pBgx*0C2026 09 04.41608423 21 28.583-29 21 37.24   ~94CK 21.11wXNEOCPF51
     P12pBgx 0C2026 09 04.43741923 21 23.401-29 19 45.44   ~94CK 21.45wXNEOCPF51
     P12pBgx 0C2026 09 04.44820423 21 20.781-29 18 48.83   ~94CK 21.20wXNEOCPF51
     P12pBgx 0C2026 09 04.52226723 21 02.793-29 12 13.35   ~94MK 20.50GVNEOCPF51
     P12pBgx 0C2026 09 04.52291423 21 02.665-29 12 10.22   ~94MK 20.98GVNEOCPF51
     P12pBgx |C2026 09 05.28111023 18 25.810-28 01 15.70   ~957Z 20.7 GVNEOCP807
     P12pBgx |C2026 09 05.28731023 18 24.290-28 00 39.40   ~957Z 21.4 GVNEOCP807
     P12pBgx |C2026 09 05.29352023 18 22.760-28 00 02.90   ~957Z 21.2 GVNEOCP807

Station data:
(807) Cerro Tololo Observatory, La Serena  (S30.169133 W70.805900)  Chile.
   Observer R. Holmes. 0.61-m f/6.5 astrograph + CCD.
(F51) Pan-STARRS 1, Haleakala  (N20.707234 W156.255910)  US/Hawaii.
   Observers J. Herman, T. Lowe, P. Minguez, A. Schultz, I. Smith. Measurers
   K. Chambers, T. de Boer, J. Fairlamb, H. Gao, M. Huber, C.-C. Lin, E.
   Magnier, Y. Ramanjooloo, R. Wainscoat, R. Weryk. 1.8-m Ritchey-Chrétien +
   CCD.

Orbital elements:  P12pBgx
   Perihelion 2026 Oct 27.898306 +/- 0.191 TT = 21:33:33.6 (JD 2461341.398306)
Epoch 2026 Sep  5.0 TT = JDT 2461288.5   Earth MOID: 0.0545      AutoNEOCP
M 325.937317984 +/- 0.16            (J2000 ecliptic)
n   0.643927650 +/- 0.00279         Peri.   46.469133 +/- 0.38
a   1.328142476 +/- 0.00384         Node   349.648636 +/- 0.037
e   0.24395339 +/- 0.00331          Incl.   13.115476 +/- 0.07
P   1.531/559.058d         H 25.14  G  0.15   U  8.8
q 1.004137609 +/- 0.00206    Q 1.652147343 +/- 0.009
From 8 observations 2026 Sept. 4-5 (21.1 hr); mean residual 0".18
Residuals in arcseconds: 
260904 F51  .08+  .35-    260904 F51  .18-  .12+    260905 807  .05+  .02-    
260904 F51  .06-  .24+    260904 F51  .18+  .26-    260905 807  .15+  .18+    
260904 F51  .03-  .25+    260905 807  .20-  .15-    

Ephemerides (geocentric):
Date (UTC) HH   RA             Dec           delta  r     elong  mag " sig PA
---- --------  ------------   ------------  ------ ------ -----  --- --------
2026 09 05 10  23 17 59.605   -27 48 22.08  .09030 1.0927 158.4 21.1 .243  80
2026 09 05 11  23 17 50.680   -27 44 20.02  .09014 1.0926 158.5 21.1 .236  72
2026 09 05 12  23 17 41.731   -27 40 16.96  .08997 1.0925 158.5 21.1 .235  63
2026 09 05 13  23 17 32.759   -27 36 12.90  .08981 1.0923 158.6 21.1 .240  53
2026 09 05 14  23 17 23.764   -27 32 07.84  .08965 1.0922 158.7 21.1 .254  42
2026 09 05 15  23 17 14.745   -27 28 01.77  .08949 1.0921 158.7 21.1 .278  32
2026 09 05 16  23 17 05.702   -27 23 54.69  .08933 1.0920 158.8 21.1 .312  23
2026 09 05 17  23 16 56.636   -27 19 46.61  .08917 1.0918 158.9 21.1 .357  16
2026 09 05 18  23 16 47.547   -27 15 37.50  .08901 1.0917 158.9 21.1 .409   9
2026 09 05 19  23 16 38.434   -27 11 27.37  .08885 1.0916 159.0 21.0 .470   4
2026 09 05 20  23 16 29.297   -27 07 16.21  .08869 1.0915 159.1 21.0 .539   0
2026 09 05 21  23 16 20.137   -27 03 04.03  .08853 1.0913 159.1 21.0 .614 177
2026 09 05 22  23 16 10.953   -26 58 50.81  .08837 1.0912 159.2 21.0 .696 174
2026 09 05 23  23 16 01.745   -26 54 36.55  .08821 1.0911 159.3 21.0 .784 172
2026 09 06 00  23 15 52.514   -26 50 21.25  .08805 1.0910 159.3 21.0 .878 170
2026 09 06 01  23 15 43.258   -26 46 04.91  .08789 1.0908 159.4 21.0 .978 168
2026 09 06 02  23 15 33.979   -26 41 47.51  .08773 1.0907 159.5 21.0 1.08 167
2026 09 06 03  23 15 24.676   -26 37 29.06  .08757 1.0906 159.6 21.0 1.20 166
2026 09 06 04  23 15 15.350   -26 33 09.56  .08741 1.0904 159.6 21.0 1.31 165
2026 09 06 05  23 15 05.999   -26 28 48.98  .08725 1.0903 159.7 21.0 1.44 164
2026 09 06 06  23 14 56.625   -26 24 27.35  .08710 1.0902 159.8 21.0 1.57 163
2026 09 06 07  23 14 47.226   -26 20 04.64  .08694 1.0901 159.8 21.0 1.70 162
2026 09 06 08  23 14 37.804   -26 15 40.85  .08678 1.0899 159.9 21.0 1.84 162
2026 09 06 09  23 14 28.357   -26 11 15.99  .08662 1.0898 160.0 21.0 1.99 161
2026 09 06 10  23 14 18.887   -26 06 50.04  .08647 1.0897 160.0 21.0 2.14 161
2026 09 06 11  23 14 09.392   -26 02 23.01  .08631 1.0896 160.1 20.9 2.30 160
2026 09 06 12  23 13 59.873   -25 57 54.88  .08615 1.0894 160.2 20.9 2.47 160
2026 09 06 13  23 13 50.331   -25 53 25.66  .08600 1.0893 160.3 20.9 2.64 160
2026 09 06 14  23 13 40.764   -25 48 55.34  .08584 1.0892 160.3 20.9 2.82 159
2026 09 06 15  23 13 31.173   -25 44 23.91  .08569 1.0891 160.4 20.9 3.00 159
2026 09 06 16  23 13 21.557   -25 39 51.38  .08553 1.0889 160.5 20.9 3.19 159
2026 09 06 17  23 13 11.918   -25 35 17.73  .08537 1.0888 160.5 20.9 3.39 159
2026 09 06 18  23 13 02.254   -25 30 42.96  .08522 1.0887 160.6 20.9 3.59 158
2026 09 06 19  23 12 52.565   -25 26 07.08  .08507 1.0886 160.7 20.9 3.80 158
2026 09 06 20  23 12 42.853   -25 21 30.07  .08491 1.0884 160.8 20.9 4.02 158
2026 09 06 21  23 12 33.116   -25 16 51.92  .08476 1.0883 160.8 20.9 4.24 158
2026 09 06 22  23 12 23.355   -25 12 12.65  .08460 1.0882 160.9 20.9 4.47 158
2026 09 06 23  23 12 13.569   -25 07 32.24  .08445 1.0881 161.0 20.9 4.71 158
2026 09 07 00  23 12 03.759   -25 02 50.68  .08430 1.0879 161.1 20.9 4.95 157
2026 09 07 01  23 11 53.924   -24 58 07.98  .08414 1.0878 161.1 20.9 5.20 157
2026 09 07 02  23 11 44.065   -24 53 24.13  .08399 1.0877 161.2 20.9 5.46 157
2026 09 07 03  23 11 34.182   -24 48 39.12  .08384 1.0876 161.3 20.8 5.72 157
2026 09 07 04  23 11 24.273   -24 43 52.95  .08368 1.0875 161.3 20.8 5.99 157
2026 09 07 05  23 11 14.341   -24 39 05.62  .08353 1.0873 161.4 20.8 6.27 157
2026 09 07 06  23 11 04.383   -24 34 17.12  .08338 1.0872 161.5 20.8 6.55 157
2026 09 07 07  23 10 54.401   -24 29 27.45  .08323 1.0871 161.6 20.8 6.85 157
2026 09 07 08  23 10 44.395   -24 24 36.61  .08308 1.0870 161.6 20.8 7.15 157
2026 09 07 09  23 10 34.363   -24 19 44.58  .08293 1.0868 161.7 20.8 7.45 157